アトラス彗星

C/2019 K1 ( ATLAS )

English version
Home page
Updated on November 9, 2019

---------------------------------------------------------------------

・ プロフィール

発見日 2019年5月16日
発見光度 17.1等
発見者 Asteroid Terrestrial-Impact Last Alert System (ATLAS) search program

・ 写真集

・ 軌道要素

Epoch 2020 Feb. 1.0 TT = JDT 2458880.5
T 2020 Feb. 12.96809 TT                                 Williams
q   2.0121947            (2000.0)            P               Q
z  +0.0001894      Peri.  265.71954     +0.02629730     +0.28888515
 +/-0.0000349      Node    73.37440     +0.31750227     +0.90534986
e   0.9996188      Incl.   87.14143     -0.94789280     +0.31126677
From 162 observations 2019 May 16-July 27, mean residual 0".5.

・ 星図

・ 光度変化

        m1 = 9.5 + 5 logΔ + 10.0 log r

---------------------------------------------------------------------

軌道要素はM.P.E.C. 2019-Q135に掲載されたものです。
星図はステラナビゲータ Ver.10 (アストロアーツ) で作成したものです。
光度グラフはComet for Windowsで作成したものです。

---------------------------------------------------------------------

Copyright(C) Seiichi Yoshida (comet@aerith.net). All rights reserved.